Starlink 11399

operational
NORAD ID: 63063 Int'l Des: 2025-035 Owner: SPXS Country: US Constellation: starlink
LEOCIRCULAR

Über Starlink 11399

Beschreibung wird geladen...

Live-Position

3D-Globus wird geladen...

Nächste Überflüge

Höhenverlauf

Altitude vs Time

uPlot chart will show altitude changes over time

Zweizeiliger Elementsatz

1 63063U 25035M 26033.90684161 .00341415 00000-0 25454-2 0 9992
2 63063 42.9979 224.7087 0001636 289.9513 70.1179 15.70942728 55755
Epoch: 2. Feb. 2026 • Age: 17 hours

Aktueller Status

Höhe 358.5 km
Geschwindigkeit 7.70 km/s
Subsatellitenpunkt 41.82°N, 63.93°W
Startdatum 21. Feb. 2025
Alter 0.9 years
Typ internet

Technische Details

Klassifizierung Payload
Masse 960.00 kg
Trockenmasse 910.00 kg
Gesamtmasse 960.00 kg
Länge 0.30 m
Durchmesser 4.10 m
Spannweite 29.00 m
Form Box + pan
Hersteller SPXS
Bus-Typ Starlink V2MD
Phasenstatus In Orbit
Besitzer/Staat SPXS/US

Große Konstellationen

Loading constellations...